Weather History for KSAD - February, 2012

Change the Weather History Date:

Wednesday, February 29, 2012

  Actual Average Record
Temperature  
Mean Temperature 47 °F -  
Max Temperature 64 °F - 82 °F (1972)
Min Temperature 30 °F - 27 °F (1956)
Degree Days  
Heating Degree Days 18    
Moisture  
Dew Point 23 °F    
Average Humidity 44    
Maximum Humidity 75    
Minimum Humidity 18    
Precipitation  
Precipitation 0.00 in - - ()
Sea Level Pressure  
Sea Level Pressure 30.10 in    
Wind  
Wind Speed 3 mph (ESE)    
Max Wind Speed 9 mph    
Max Gust Speed -    
Visibility 10 miles    
Events      
Averages and records for this station are not official NWS values.
T = Trace of Precipitation, MM = Missing Value Source: NWS Daily Summary

Daily Weather History Graph

Daily Weather History Graph

Search for Another Location

Airport or City:

Trip Planner

Search our weather history database for the weather conditions in past years. The results will help you decide how hot, cold, wet, or windy it might be!

Date:

Astronomy

Feb. 29, 2012 Rise Set
Actual Time 6:46 AM MST 6:15 PM MST
Civil Twilight 6:22 AM MST 6:40 PM MST
Nautical Twilight 5:53 AM MST 7:08 PM MST
Astronomical Twilight 5:25 AM MST 7:37 PM MST
Moon 11:04 AM MST (2/29) 12:41 AM MST (2/29)
Length of Visible Light 12h 18m
Length of Day
11h 28m
Waxing Crescent, 48% of the Moon is Illuminated
Feb 29
Waxing Crescent
Feb 29
First Quarter
Mar 8
Full
Mar 14
Last Quarter
Mar 22
New

Hourly Weather History & Observations

Time (MST) Temp. Windchill Dew Point Humidity Pressure Visibility Wind Dir Wind Speed Gust Speed Precip Events Conditions
12:51 AM 37.0 °F 32.4 °F 25.0 °F 62% 30.16 in 10.0 mi North 5.8 mph - N/A   Clear
1:51 AM 36.0 °F - 25.0 °F 64% 30.16 in 10.0 mi Calm Calm - N/A   Clear
2:51 AM 35.1 °F - 25.0 °F 67% 30.15 in 10.0 mi Calm Calm - N/A   Clear
3:51 AM 33.1 °F - 24.1 °F 70% 30.15 in 10.0 mi Calm Calm - N/A   Clear
4:51 AM 34.0 °F - 24.1 °F 67% 30.14 in 10.0 mi Calm Calm - N/A   Clear
5:51 AM 30.9 °F 27.5 °F 23.0 °F 72% 30.17 in 10.0 mi East 3.5 mph - N/A   Clear
6:51 AM 30.0 °F - 23.0 °F 75% 30.19 in 10.0 mi Calm Calm - N/A   Clear
7:51 AM 36.0 °F 33.3 °F 25.0 °F 64% 30.20 in 10.0 mi SSE 3.5 mph - N/A   Clear
8:51 AM 39.9 °F - 25.0 °F 55% 30.21 in 10.0 mi Calm Calm - N/A   Clear
9:51 AM 46.0 °F - 27.0 °F 47% 30.20 in 10.0 mi Calm Calm - N/A   Clear
10:51 AM 50.0 °F - 25.0 °F 38% 30.18 in 10.0 mi Calm Calm - N/A   Clear
11:51 AM 55.0 °F - 24.1 °F 30% 30.14 in 10.0 mi SSE 5.8 mph - N/A   Clear
12:51 PM 59.0 °F - 21.9 °F 24% 30.09 in 10.0 mi Variable 3.5 mph - N/A   Clear
1:51 PM 60.1 °F - 19.9 °F 21% 30.06 in 10.0 mi NNW 4.6 mph - N/A   Clear
2:51 PM 61.0 °F - 21.0 °F 21% 30.04 in 10.0 mi Variable 5.8 mph - N/A   Clear
3:51 PM 64.0 °F - 19.9 °F 18% 30.02 in 10.0 mi WNW 9.2 mph - N/A   Clear
4:51 PM 64.0 °F - 21.0 °F 19% 30.01 in 10.0 mi WNW 9.2 mph - N/A   Clear
5:51 PM 61.0 °F - 21.9 °F 22% 30.01 in 10.0 mi West 8.1 mph - N/A   Clear
6:51 PM 57.0 °F - 23.0 °F 27% 30.02 in 10.0 mi SSW 4.6 mph - N/A   Clear
7:51 PM 57.0 °F - 21.0 °F 25% 30.02 in 10.0 mi Variable 4.6 mph - N/A   Clear
8:51 PM 51.1 °F - 21.9 °F 32% 30.03 in 10.0 mi Calm Calm - N/A   Clear
9:51 PM 48.0 °F - 24.1 °F 39% 30.03 in 10.0 mi East 5.8 mph - N/A   Clear
10:51 PM 45.0 °F 41.8 °F 23.0 °F 42% 30.03 in 10.0 mi ESE 5.8 mph - N/A   Clear
11:51 PM 43.0 °F - 23.0 °F 45% 30.02 in 10.0 mi Calm Calm - N/A   Clear